Location: Home
(42.5358°N, 72.7383°W)
Time: 11:37:37
(UTC-05:00)

A-11 Canister half - Pass Details

Date: 03 December 2021
Orbit: 1516 x 1684 km, 47.2° (Epoch: 24 January)

Event Time Altitude Azimuth Distance (km) Brightness Sun altitude
Rises 06:27:37 0° 223° (SW) 4,732 11.4 -6.7°
Reaches altitude 10° 06:30:41 10° 219° (SW) 3,772 10.9 -6.2°
Maximum altitude 06:40:04 60° 143° (SE) 1,814 9.8 -4.6°
Drops below altitude 10° 06:49:48 10° 67° (ENE) 3,911 11.8 -3.0°
Sets 06:53:03 0° 64° (ENE) 4,916 12.2 -2.5°
